STARLINK-4206, 52847

Orbit data source: Space-Track

STARLINK-4206, 52847 is a payload satellite owned by SpaceX/Seattle (US) in LEO that was launched on Fri, 17 Jun 2022 UTC via an FALCON 9 launch vehicle from the Air Force Eastern Test Range (AFETR). Payload-class satellites include a variety of spacecraft equipped with specific instruments for various scientific and technological missions. These include communications satellites like Starlink; space stations such as the ISS; scientific satellites like the Hubble; Earth observation satellites from companies like Planet Labs, Umbra, and HawkEye 360; GPS; miniature CubeSats for education and research; and military/defense satellites.

Loading next visibility...
Identifier
52847, 2022-062T
Orbit
LEO
Country
Flag of USUS
Related business
Manufacturer
SpaceX/Seattle
Mission
Operational Commercial Communications
Bus & Motor
STARLINK, Unknown motor
Mass
297 kg wet, ~275 kg dry
Launch date (UTC)
2022-06-17 (4 years ago)
Launch vehicle
FALCON 9
Launch site
Air Force Eastern Test Range (AFETR)
Object type
Payload
Rocket body
Debris
Shape & HBR
Box + 1 Pan, 10.1 m
Radar Cross Section
13.562 m², Large (>1 m²)

Expand to show TLE details & history
Last TLE update: 3 days ago

TLE from 3 days ago
0 STARLINK-4206
1 52847U 22062T   26170.72301976  .00000146  00000-0  27301-4 0  9997
2 52847  53.1608 295.9625 0001277  98.9921 261.1215 15.08831988221198
Epoch: 2026-06-19T17:21Z
TLE epoch observation values (Epoch: 2026-06-19T17:21:08.907Z)
Latitude
-0.00001°
Longitude
127.72747°
Altitude
540.796 km
Speed
7.593 km/s
True Right ascension
19h 43m 50s
True Declination
0° 00' 00"
Sunlit
Object was in full shadow at epoch
Visualization orbit readout
Latitude
Unknown
Longitude
Unknown
Altitude
Unknown
Speed
Unknown
Apparent Right ascension
Unknown
Apparent Declination
Unknown
Sunlit
N/A
Visualization observer readout
Local Sidereal Time
21:34:47
Azimuth
Unknown
Elevation
Unknown
Doppler factor
Unknown
Orbital elements
Apogee altitude
540.905 km
Perigee altitude
539.138 km
Semi-major axis
6,918.159 km
Eccentricity
0.00013
Inclination
53.1608°
RAAN
295.9625°
Arg. of periapsis
98.9921°
True anomaly
261.10704°
Mean anomaly
261.1215°
Eccentric anomaly
261.11427°
Mean motion
3.77188 °/min
Orbital period
95.44 mins
BSTAR
0.000027301
Loading maneuver chart data...
Computing Atmospheric mass density...
Loading historical data...
Loading historical data...
Loading historical data...
Loading historical data...
Loading historical data...
Loading historical data...
Loading historical data...

Documentation

Showing up to 5 results
|